Regional Weather Roundup
Issued by NWS Green Bay, WI

Home | Current Version | Previous Version | Text Only | Print | Product List | Glossary On
Versions: 1 2 3 4 5 6 7 8 9 10 11 12 13 14 15 16 17 18 19 20 21 22 23 24 25 26 27 28 29 30 31 32 33 34 35 36 37 38 39 40 41 42 43 44 45 46 47 48 49 50
000
ASUS43 KGRB 240159
RWRGRB

NORTH-CENTRAL AND NORTHEAST WISCONSIN REGIONAL WEATHER ROUNDUP
NATIONAL WEATHER SERVICE GREEN BAY WI
900 PM CDT THU OCT 23 2014

WIZ005-009-010>012-018-019-240300-
NORTH CENTRAL WISCONSIN

CITY           SKY/WX    TMP DP  RH WIND       PRES   REMARKS
IRONWOOD       CLOUDY    46  46 100 S10       29.96S
MANITOWISH WTR NOT AVBL
ARBOR VITAE    NOT AVBL
EAGLE RIVER    NOT AVBL
LAND O LAKES   NOT AVBL
RHINELANDER    CLOUDY    44  44 100 S7        30.02F FOG
PHILLIPS       NOT AVBL
ANTIGO         NOT AVBL
TOMAHAWK       NOT AVBL
MERRILL        NOT AVBL
$$

WIZ013-073-240300-
NORTHEAST WISCONSIN

CITY           SKY/WX    TMP DP  RH WIND       PRES   REMARKS
IRON MOUNTAIN  CLOUDY    45  44  97 S5        30.01S FOG
MARINETTE      MOCLDY    48  45  87 CALM      30.04R
$$

WIZ017-030-035>037-045-240300-
CENTRAL WISCONSIN

CITY           SKY/WX    TMP DP  RH WIND       PRES   REMARKS
MEDFORD        NOT AVBL
WAUSAU         FOG       46  46 100 SW5       30.02F VSB 1/4
MOSINEE        FOG       45  45 100 S3        30.04S VSB 1/4
MARSHFIELD     FOG       47  46  97 S3        30.03F VSB 1/4
WISC RAPIDS    CLOUDY    47  46  97 CALM      30.05F FOG
STEVENS POINT  NOT AVBL
WAUPACA        NOT AVBL
SHAWANO        NOT AVBL
CLINTONVILLE   NOT AVBL
$$

WIZ038-039-048-051-240300-
FOX VALLEY

CITY           SKY/WX    TMP DP  RH WIND       PRES   REMARKS
NWS GREEN BAY  CLOUDY    49  48  97 NW3       30.05R FOG
APPLETON       CLOUDY    48  46  93 SW5       30.05R FOG
OSHKOSH        CLOUDY    50  48  93 CALM      30.04R FOG
FOND DU LAC    CLOUDY    51  47  86 SW6       30.04S
$$

WIZ022-050-052-240300-
EAST CENTRAL WISCONSIN

CITY           SKY/WX    TMP DP  RH WIND       PRES   REMARKS
STURGEON BAY   CLOUDY    48  45  87 S7        30.06R
MANITOWOC      NOT AVBL
SHEBOYGAN      CLOUDY    50  48  93 S5        30.05F FOG
$$

LMZ563-521-522-541>543-240300-
LAKESHORE

STATION/POSITION TIME  TEMP    WIND        PRES    VSBY  WAVE
                       AIR SEA DIR/SP/G                  HT/PER
                 (UTC) (F)     (DEG/KT/KT) (MB)    (MI)  (FT/S)
SHEBOYGAN LKSHOR 0100   51 51  180/  6/  6 1018.6R
KEWAUNEE LKSHORE 0100   50     180/  7/  7 1016.8F
NORTHPORT PIER   0100   50     160/  4/  8 1017.3F
N MID LAKE BUOY  0100   51 51  210/ 17/ 23 1017.5F         3/ 5
SISTER BAY LKSHO 0100          170/  9/ 10   N/A
CHAMBERS ISLAND  0100   50     180/  2/ 10 1017.6R
MENOMINEE LKSHOR 0100   49     210/  5/  6 1018.0R
$$



USA.gov is the U.S. government's official web portal to all federal, state and local government web resources and services.